Dr. Bill's Marine Weather

Coastal Marine Forecast

       Alabama   Florida   Louisiana   Mississippi

Printer Friendly AL  FL  LA  MS

Data Buoys:   Western Gulf of Mexico    Eastern Gulf of Mexico
**********************************************************************
  Alabama
500 AM CST SUN DEC 11 2016

ALZ051>064-111200-
SOUTHWEST ALABAMA
  
CITY           SKY/WX    TMP DP  RH WIND       PRES   REMARKS
MOBILE         CLEAR     38  23  55 NE5       30.30S WCI  34          
BROOKLEY FIELD CLEAR     35  30  82 NW8       30.32S WCI  29          
EVERGREEN      CLOUDY    28  25  88 CALM      30.33R                  
**********************************************************************
  Florida
600 AM EST SUN DEC 11 2016

FLZ001>010-012>015-112-114-115-111200-
PANHANDLE FLORIDA
  
CITY           SKY/WX    TMP DP  RH WIND       PRES   REMARKS
PENSACOLA      CLEAR     41  28  60 NE7       30.29S WCI  36          
PENSACOLA NAS  CLEAR     42  30  62 N7        30.28S WCI  38          
MILTON NAS     CLOUDY    32  25  75 N5        30.30  WCI  27          
CRESTVIEW      CLEAR     30  27  88 CALM      30.32S                  
DUKE FIELD     FAIR      29  26  86 NW3       30.29S                  
VALPARAISO     CLEAR     36  28  73 NE6       30.30S WCI  31          
MARY ESTHER    CLEAR     36  28  73 NE6       30.29S WCI  31          
PANAMA CITY    CLOUDY    47  38  71 NE8       30.29R WCI  43          
TYNDALL AFB    CLEAR     46  39  77 E8        30.29S WCI  41          
APALACHICOLA   CLOUDY    48  43  82 E12       30.28S WCI  43          

STATION/POSITION SKY/WX   TEMP    WIND        PRES    WAVE   SWELL
                          AIR SEA DIR/SP/G            HT/PER HT/PER
                          (F)     (DEG/KT/KT) (MB)    (FT/S) (FT/S)
30.1N   87.6W              61 69  140/ 10/ 12 1025.1S   2/ 5   2/ 5
29.2N   88.2W              64 73  110/  6/ 10 1024.5
28.8N   86.0W              67 74              1024.0    4/ 6   3/ 6
PANAMA CITY BEAC           49 65   70/  8/ 14 1025.8S
TOWER C                    59      80/ 17/ 19 1025.5F
28.5N   84.5W              66 73  100/ 12/ 14 1024.5    4/ 6   3/ 6

**********************************************************************
  Louisiana
500 AM CST SUN DEC 11 2016

LAZ040-048-061>063-065-066-069-111200-
SOUTHEAST LOUISIANA
  
CITY           SKY/WX    TMP DP  RH WIND       PRES   REMARKS
N.O. AUDUBON   NOT AVBL                                               
N.O. INTL ARPT PTCLDY    44  39  82 E3        30.26F                  
N.O. LAKEFRONT CLEAR     48  41  76 E10       30.27F                  
N.O. DOWNTOWN*   N/A     48  42  80 NE8       30.27F                  
RESERVE*       FAIR      40  38  94 CALM      30.26F                  
SLIDELL        CLEAR     32  30  92 CALM      30.27F                  
BATON ROUGE    CLOUDY    40  33  76 NE3       30.23F                  
BOOTHVILLE     CLEAR     50  49  96 NE5       30.26F                  
BELLE CHASSE   CLEAR     38  36  92 NE5       30.26S WCI  34          
BOGALUSA*      FAIR      32  28  87 CALM      30.31S                  
GALLIANO*      SUNNY     46  39  79 NE3       30.25F                  
NEW ROADS*     PTSUNNY   45  34  66 SE8       30.23F                  
GONZALES*      CLOUDY    40  36  85 CALM      30.23F                  
HAMMOND*       PTCLDY    36  30  80 CALM      30.27F                  
HOUMA*         PTCLDY    40  37  87 CALM      30.25F                  
PORT FOURCHON* SUNNY     52  48  87 NE5       30.24F                  

**********************************************************************
  Mississippi
500 AM CST SUN DEC 11 2016

MSZ080>082-111200-
COASTAL MISSISSIPPI
  
CITY           SKY/WX    TMP DP  RH WIND       PRES   REMARKS
BILOXI         CLEAR     35  28  74 NE5       30.29R WCI  31          
PASCAGOULA     CLEAR     32  27  81 N3        30.30S                  
GULFPORT       CLEAR     36  28  73 CALM      30.29S                  
About Us | Coastal Marine Forecast | Offshore Marine Forecast
Gulf Coast Tides | Hourly Weather Observations | Weather Radar
Sea Surface Temperatures | Solar/Lunar Data | Hurricane Advisories | Home
     
USA Logo Dr. Bill's Marine Weather
Last date changed: December 9, 2014 4:08 PM
www.gulfmarineweather.com/hourlyweatherobservations.shtml
Contact Us